Regional Weather Roundup
Issued by NWS

Home | Current Version | Previous Version | Graphics & Text | Print | Product List | Glossary On
Versions: 1 2 3 4 5 6 7 8 9 10 11 12 13 14 15 16 17 18 19 20 21 22 23 24 25 26 27 28 29 30 31 32 33 34 35 36 37 38 39 40 41 42 43 44 45 46 47 48 49 50
000
ASUS43 KMKX 190059
RWRWI

WISCONSIN REGIONAL WEATHER ROUNDUP
NATIONAL WEATHER SERVICE MILWAUKEE/SULLIVAN WI
700 PM CST WED JAN 18 2017

NOTE: "FAIR" INDICATES FEW OR NO CLOUDS BELOW 12,000 FEET WITH NO
SIGNIFICANT WEATHER AND/OR OBSTRUCTIONS TO VISIBILITY.

WIZ001-002-006>008-014>016-023>028-190200-
NORTHWEST WISCONSIN

CITY           SKY/WX    TMP DP  RH WIND       PRES   REMARKS
SUPERIOR ARPT  CLOUDY    34  26  73 SW6       29.82S WCI  29
ASHLAND        CLOUDY    37  28  70 SW10      29.83S WCI  30
HAYWARD        CLOUDY    31  26  82 S5        29.85S WCI  26
SIREN          CLOUDY    33  29  85 S5        29.85S WCI  29
CUMBERLAND     CLOUDY    30  28  93 S6        29.86S WCI  24
RICE LAKE      CLOUDY    32  29  88 S7        29.88S WCI  26
CHETEK         CLOUDY    32  29  90 CALM      29.88
LADYSMITH      CLOUDY    34  30  86 S5        29.90R WCI  30
EAU CLAIRE     CLOUDY    32  29  88 S8        29.89S WCI  25
MENOMONIE      CLOUDY    33  31  91 MISG      29.90R
NEW RICHMOND   CLOUDY    32  30  94 S5        29.87S WCI  27
OSCEOLA        CLEAR     34  31  88 S8        29.89S WCI  28
$$

WIZ003>005-009-010-017-018-190200-
NORTH CENTRAL WISCONSIN

CITY           SKY/WX    TMP DP  RH WIND       PRES   REMARKS
MANITOWISH WTR CLOUDY    32  28  83 SW5       29.83S WCI  28
ARBOR VITAE    CLOUDY    37  29  75 SW7       29.84S WCI  31
WOODRUFF       CLOUDY    37  29  75 SW7       29.84S WCI  31
RHINELANDER    CLOUDY    34  29  82 SW7       29.85S WCI  28
EAGLE RIVER    CLOUDY    34  28  76 SW6       29.82F WCI  29
LAND O LAKES   CLOUDY    36  28  74 CALM      29.83S
PHILLIPS       CLEAR     27  26  96 CALM      29.85S
TOMAHAWK       CLEAR     29  26  90 CALM      29.87S
MEDFORD        CLOUDY    32  28  86 S6        29.88R WCI  26
MERRILL        CLEAR     32  30  92 SW5         N/A  WCI  27
$$

WIZ029-030-035-036-043>047-190200-
CENTRAL WISCONSIN

CITY           SKY/WX    TMP DP  RH WIND       PRES   REMARKS
WAUSAU         CLEAR     34  29  82 SW8       29.88S WCI  27
MOSINEE        CLEAR     34  30  86 SW10      29.90S WCI  26
MARSHFIELD     CLOUDY    34  28  79 SW10      29.89S WCI  26
STEVENS POINT  CLEAR     33  29  88 SW8       29.92R WCI  25
WAUPACA        CLEAR     36  30  80 CALM      29.94R
WAUTOMA        CLEAR     33  29  85 SW7       29.96R WCI  27
WISC RAPIDS    CLEAR     33  30  88 SW8       29.94R WCI  26
CAMP DOUGLAS   NOT AVBL
$$

WIZ011>013-019>022-031-037>040-048>050-190200-
NORTHEAST WISCONSIN

CITY           SKY/WX    TMP DP  RH WIND       PRES   REMARKS
ANTIGO         CLEAR     32  29  91 W5        29.87S WCI  27
SHAWANO        CLEAR     38  32  78 SW3       29.90S
OCONTO         NOT AVBL
STURGEON BAY   CLEAR     33  30  88 SW9       29.91S WCI  25
GREEN BAY      CLEAR     35  32  88 SW10      29.92S WCI  27
MANITOWOC      NOT AVBL
APPLETON       CLEAR     32  30  93 SW12      29.92S WCI  23
CLINTONVILLE   CLEAR     34  30  86 SW9       29.91S WCI  26
OSHKOSH        CLEAR     33  29  85 SW13      29.94R WCI  24
$$

WIZ032>034-041-042-053>061-190200-
SOUTHWEST WISCONSIN

CITY           SKY/WX    TMP DP  RH WIND       PRES   REMARKS
LA CROSSE      CLOUDY    35  30  82 S14       29.96S WCI  26
SPARTA         CLOUDY    32  30  92 SW3       29.96S
VIROQUA        CLOUDY    32  31  99 SW15      29.96R WCI  21
BOSCOBEL       CLOUDY    34  31  88 SW7       30.02S WCI  28
PRAIRIE DU CHI CLOUDY    34  31  88 S6        30.03R WCI  29
PLATTEVILLE    CLOUDY    33  33 100 SW12      30.04R WCI  24
$$

WIZ056-057-062-063-064-067-068-190200-
SOUTH CENTRAL WISCONSIN

CITY           SKY/WX    TMP DP  RH WIND       PRES   REMARKS
REEDSBURG      NOT AVBL
BARABOO/DELLS  CLOUDY    32  30  92 SW3       29.96S FOG
LONE ROCK      NOT AVBL
MINERAL POINT  CLOUDY    34  34 100 SW12      30.01R FOG     WCI  25
MADISON        CLOUDY    33  30  88 S9        30.01R FOG     WCI  25
MIDDLETON      CLOUDY    34  34 100 SW8       30.00S WCI  28
WATERTOWN      CLOUDY    32  32 100 SW9       30.01S FOG     WCI  24
MONROE         CLOUDY    32  32 100 SW14      30.02R FOG     WCI  22
JANESVILLE     CLOUDY    36  36 100 S13       30.04S WCI  27
$$

WIZ051-052-058>065-066-070>072-190200-
SOUTHEAST WISCONSIN

CITY           SKY/WX    TMP DP  RH WIND       PRES   REMARKS
MILWAUKEE      CLOUDY    34  30  85 SW13      30.02S WCI  25
WAUKESHA       CLOUDY    30  28  93 SW10G21   30.03R WCI  21
MILWAUKEE/TIMM MOCLDY    32  28  86 SW12      30.03R WCI  23
RACINE         CLOUDY    34  30  85 SW13G18   30.05S WCI  25
KENOSHA        CLOUDY    34  31  88 SW13      30.04S WCI  25
FOND DU LAC    PTCLDY    33  28  81 SW14G24   29.96R WCI  23
SHEBOYGAN      CLEAR     33  29  85 SW12      29.96R WCI  24
WEST BEND      CLOUDY    32  32 100 SW10      29.98F WCI  24
JUNEAU         CLOUDY    31  30  94 S16       30.00F FOG     WCI  20
$$

LSZ147-162-190200-
LAKE SUPERIOR

STATION/POSITION TIME  TEMP    WIND        PRES    WAVE
                       AIR SEA DIR/SP/G            HT/PER
                 (UTC) (F)     (DEG/KT/KT) (MB)    (FT/S)
DEVILS ISLAND    0000   36     220/ 11/ 13 1010.1R
PORT WING        0040   37     190/  4/  5 1010.2R
SAXON HARBOR     0030   40     200/  5/ 10 1009.8R
$$

LMZ867-665-643>646-190200-
LAKE MICHIGAN

STATION/POSITION TIME  TEMP    WIND        PRES    WAVE
                       AIR SEA DIR/SP/G            HT/PER
                 (UTC) (F)     (DEG/KT/KT) (MB)    (FT/S)
NORTHPORT PIER   0040   35     170/  1/  5 1011.9F
SISTER BAY       0020   36     190/  9/ 11   N/A
KEWAUNEE LAKESHO 0030   35     240/  7/ 10 1012.8S
SHEBOYGAN LAKESH 0000   35     220/ 12/ 14 1014.7F
PORT WASHINGTON  0030   33     210/  7/ 15 1016.3F
MILWAUKEE LAKESH 0030   33     230/ 14/ 16   N/A
KENOSHA   LAKESH 0000   34     220/ 13/ 21 1017.6
$$

TC  - TEMPERATURE IN CELSIUS
VSB - VISIBILITY IN STATUTE MILES
WCI - WIND CHILL INDEX
HX  - HEAT INDEX





USA.gov is the U.S. government's official web portal to all federal, state and local government web resources and services.